[[{"header":{"parameterUnit":"m.s-1","parameterCategory":1,"la1":30.2991,"la2":30.254,"lo1":-89.0895,"lo2":-89.0444,"dy":0.0017,"dx":0.0017,"nx":28,"ny":28,"refTime":"2024-08-18T03:00:00:Z","depth":0,"parameterNumber":2,"parameterNumberName":"U-component_of_WINDS"},"data":[0,0,0,0,0,0,0,0,0,0,0,0,0,0,0,0,0,0,0,0,0,0,0,0,0,0,0,0,0,0,0,0,0,0,0,0,0,0,0,0,0,0,0,0,0,0,0,0,0,0,0,0,0,0,0,0,0,0,1.3501,1.3501,0,1.3475,1.3475,1.3474,1.345,1.345,1.345,1.3449,1.3422,1.3421,1.3421,0,0,0,0,0,0,0,0,0,0,0,0,0,1.3529,1.3528,1.3501,1.3501,1.35,1.3475,1.3475,1.3474,1.345,1.345,1.345,1.3449,1.3422,1.3421,1.3421,0,0,0,0,0,0,0,0,0,0,0,0,0,1.3511,1.3528,1.3501,1.3485,1.3484,1.3475,1.3475,1.3474,1.345,1.345,1.345,1.3449,1.3422,1.3421,1.3421,1.3425,0,0,1.3418,1.3418,0,0,0,0,0,0,0,0,1.3512,1.351,1.3488,1.3486,1.3485,1.3465,1.3474,1.3458,1.3451,1.3463,1.3449,1.3449,1.3437,1.3435,1.3431,1.3424,1.3422,1.3418,1.3418,1.3418,1.3417,0,0,0,0,0,0,0,1.3513,1.3511,1.3491,1.3488,1.3486,1.3479,1.3476,1.3471,1.3452,1.3462,1.346,1.3457,1.3435,1.3431,1.343,1.3422,1.3418,1.3418,1.3417,1.3417,1.3417,1.3417,0,0,0,0,0,0,1.3517,1.3512,1.3491,1.349,1.3498,1.3479,1.3476,1.3472,1.3452,1.3449,1.3458,1.3456,1.3433,1.3431,1.3429,1.3432,1.3418,1.3417,1.3417,1.3416,1.3417,1.3417,0,0,0,0,0,0,1.3518,1.3516,1.3492,1.3501,1.3497,1.3479,1.3475,1.3472,1.3468,1.3449,1.3446,1.3457,1.3432,1.343,1.3426,1.3431,1.3417,1.3416,1.3416,1.3416,1.3417,1.3439,0,0,0,0,0,0,1.3519,1.3516,1.3518,1.3501,1.3497,1.3491,1.3475,1.3471,1.3467,1.3464,1.3448,1.3445,1.3432,1.3427,1.3425,1.3429,1.3416,1.3415,1.3416,1.3417,1.3437,1.344,1.3442,0,0,0,0,0,1.352,1.3525,1.3518,1.3515,1.3499,1.3491,1.3489,1.3474,1.3467,1.3468,1.3457,1.3445,1.3431,1.3427,1.3425,1.3429,1.3415,1.3416,1.3417,1.3436,1.344,1.3442,0,0,0,0,0,0,1.3542,1.3522,1.3514,1.3514,1.3504,1.3487,1.3488,1.3478,1.347,1.3468,1.345,1.3447,1.3445,1.3436,1.3433,1.3432,1.3421,1.3422,1.3437,1.344,1.3442,1.3444,1.3415,0,0,0,0,0,1.3547,1.3543,1.3526,1.3527,1.3522,1.3506,1.3502,1.3492,1.3481,1.3477,1.3465,1.3455,1.3448,1.3443,1.3436,1.3436,1.3432,1.3438,1.344,1.3442,1.3443,1.3442,1.3444,1.342,1.342,1.342,0,0,1.3557,1.3546,1.3544,1.3531,1.3522,1.3518,1.3503,1.3499,1.3495,1.3476,1.3472,1.3463,1.345,1.3448,1.3447,1.3441,1.3448,1.3444,1.3445,1.3444,1.3443,1.3445,1.3447,1.3421,1.3421,1.3421,0,0,1.3573,1.3564,1.3564,1.3556,1.3543,1.3532,1.3532,1.3516,1.351,1.3505,1.3491,1.3486,1.3474,1.3466,1.346,1.3473,1.3461,1.3471,1.3482,1.3482,1.3484,1.3485,1.3489,1.3491,1.3471,1.3471,1.3471,0,1.3587,1.358,1.3565,1.3562,1.3556,1.3539,1.3539,1.3531,1.3517,1.3513,1.3507,1.3492,1.3482,1.3478,1.3481,1.3477,1.3476,1.3472,1.3485,1.3486,1.3487,1.3491,1.3492,1.3473,1.3472,1.3472,1.3472,0,1.3597,1.3593,1.3594,1.3581,1.3575,1.3573,1.3558,1.3554,1.3545,1.3534,1.353,1.3518,1.3507,1.3506,1.3496,1.35,1.3497,1.3488,1.3477,1.3491,1.3494,1.3495,1.3474,1.3474,1.3473,1.3473,0,0,1.3626,1.3604,1.3605,1.3599,1.3583,1.3579,1.3577,1.3567,1.3564,1.3554,1.3551,1.3542,1.3534,1.3527,1.3516,1.3516,1.3526,1.3507,1.3506,1.351,1.3529,1.3535,1.3536,1.3519,1.3519,1.3519,1.3529,0,1.3638,1.3633,1.3619,1.3618,1.3613,1.3597,1.3594,1.3584,1.3575,1.3569,1.3558,1.3552,1.3542,1.3538,1.3537,1.3525,1.3529,1.3524,1.3515,1.3515,1.3518,1.3538,1.3544,1.3555,1.3531,1.3531,1.3531,0,1.3652,1.3644,1.3642,1.3627,1.3624,1.3622,1.3612,1.3607,1.3595,1.3588,1.3581,1.3569,1.3565,1.3556,1.3549,1.3546,1.3542,1.3535,1.3535,1.3533,1.3523,1.3536,1.3558,1.3559,1.3533,1.3532,1.3532,0,1.3672,1.3661,1.3658,1.3653,1.3635,1.3634,1.3627,1.3615,1.361,1.3601,1.3597,1.3588,1.3582,1.3575,1.3561,1.3556,1.3556,1.3546,1.355,1.355,1.355,1.355,1.357,1.3548,1.3548,1.3548,1.3548,0,1.3687,1.3686,1.3666,1.3665,1.3663,1.3648,1.3646,1.3637,1.3627,1.3623,1.3608,1.3605,1.3587,1.3581,1.357,1.3566,1.3564,1.3558,1.3554,1.3558,1.3559,1.3554,1.3553,1.3549,1.3548,1.3548,1.3548,0,1.3709,1.3696,1.3691,1.3675,1.3671,1.367,1.3656,1.3654,1.3644,1.3638,1.3636,1.362,1.3612,1.3598,1.3586,1.3579,1.3577,1.3572,1.358,1.3578,1.3583,1.3582,1.3601,1.3602,1.358,1.358,1.358,0,1.3719,1.3718,1.3701,1.3698,1.3691,1.3685,1.368,1.3665,1.366,1.3647,1.3646,1.3637,1.3629,1.3617,1.3604,1.3595,1.3589,1.3596,1.3588,1.3592,1.3588,1.3588,1.3588,1.3598,1.3598,1.3599,1.3599,0,1.3738,1.3731,1.3724,1.3715,1.3709,1.3702,1.3693,1.3691,1.3673,1.3669,1.3661,1.3655,1.3643,1.3634,1.3623,1.3615,1.3604,1.3602,1.3602,1.3606,1.361,1.3607,1.3585,1.3601,1.3601,1.3601,1.3601,1.3601,1.3753,1.3751,1.3739,1.3732,1.3724,1.3716,1.3713,1.3703,1.3696,1.3685,1.3677,1.3669,1.3657,1.3641,1.3634,1.3628,1.3623,1.3623,1.3623,1.3623,1.3624,1.3612,1.3626,1.3626,1.3626,1.3625,1.3625,0,1.377,1.3762,1.3756,1.3744,1.3738,1.3729,1.3719,1.3715,1.3709,1.3699,1.3691,1.3682,1.3674,1.366,1.365,1.3648,1.3643,1.3646,1.3645,1.3643,1.363,1.363,1.365,1.365,1.365,1.365,1.365,1.365,1.3779,1.3775,1.3767,1.3759,1.3751,1.3744,1.3739,1.3731,1.3723,1.3713,1.3706,1.3698,1.3686,1.3676,1.3667,1.3663,1.366,1.3665,1.3659,1.3647,1.3644,1.3642,1.3642,1.3664,1.3664,1.3673,1.3673,1.3673]},{"header":{"parameterUnit":"m.s-1","parameterCategory":1,"la1":30.2991,"la2":30.254,"lo1":-89.0895,"lo2":-89.0444,"dy":0.0017,"dx":0.0017,"nx":28,"ny":28,"refTime":"2024-08-18T03:00:00:Z","depth":0,"parameterNumber":3,"parameterNumberName":"V-component_of_WINDS"},"data":[0,0,0,0,0,0,0,0,0,0,0,0,0,0,0,0,0,0,0,0,0,0,0,0,0,0,0,0,0,0,0,0,0,0,0,0,0,0,0,0,0,0,0,0,0,0,0,0,0,0,0,0,0,0,0,0,0,0,-3.4732,-3.4733,0,-3.4841,-3.4842,-3.4843,-3.4804,-3.4802,-3.4799,-3.4797,-3.4906,-3.4911,-3.4916,0,0,0,0,0,0,0,0,0,0,0,0,0,-3.4489,-3.4494,-3.4732,-3.4733,-3.4734,-3.484,-3.4842,-3.4843,-3.4805,-3.4802,-3.4799,-3.4796,-3.4904,-3.491,-3.4916,0,0,0,0,0,0,0,0,0,0,0,0,0,-3.4596,-3.4495,-3.4731,-3.4728,-3.4729,-3.484,-3.4842,-3.4844,-3.4805,-3.4802,-3.4798,-3.4794,-3.4902,-3.491,-3.4917,-3.5038,0,0,-3.4941,-3.4944,0,0,0,0,0,0,0,0,-3.459,-3.4605,-3.4727,-3.4728,-3.4729,-3.4805,-3.4796,-3.4909,-3.4806,-3.4776,-3.4797,-3.4793,-3.4875,-3.4885,-3.4913,-3.5043,-3.5047,-3.4941,-3.4946,-3.4949,-3.4952,0,0,0,0,0,0,0,-3.4582,-3.46,-3.4775,-3.4729,-3.473,-3.472,-3.4732,-3.4817,-3.4844,-3.4778,-3.4776,-3.4789,-3.4875,-3.4906,-3.4915,-3.5049,-3.4941,-3.4948,-3.4953,-3.4956,-3.5285,-3.5289,0,0,0,0,0,0,-3.4575,-3.4594,-3.4771,-3.4778,-3.4649,-3.4728,-3.474,-3.4784,-3.4843,-3.4849,-3.4792,-3.4787,-3.4894,-3.4906,-3.4919,-3.5065,-3.4949,-3.4957,-3.4961,-3.5281,-3.5286,-3.529,0,0,0,0,0,0,-3.4569,-3.4591,-3.4767,-3.4685,-3.4707,-3.4736,-3.4786,-3.4788,-3.4819,-3.4854,-3.4859,-3.4819,-3.4892,-3.4908,-3.5009,-3.5068,-3.496,-3.4967,-3.5276,-3.5282,-3.5288,-3.5358,0,0,0,0,0,0,-3.4563,-3.4589,-3.4635,-3.4687,-3.4711,-3.4856,-3.4789,-3.4793,-3.4833,-3.4827,-3.488,-3.4885,-3.489,-3.4998,-3.5017,-3.5077,-3.4973,-3.5271,-3.5279,-3.5286,-3.535,-3.5366,-3.5379,0,0,0,0,0,-3.4554,-3.465,-3.4638,-3.466,-3.477,-3.4859,-3.4873,-3.4878,-3.4838,-3.4885,-3.4907,-3.4884,-3.5059,-3.5008,-3.503,-3.5093,-3.5267,-3.5277,-3.5286,-3.5344,-3.5363,-3.5378,0,0,0,0,0,0,-3.4603,-3.4656,-3.4644,-3.4759,-3.4805,-3.4852,-3.4911,-3.4897,-3.4954,-3.4946,-3.4949,-3.4961,-3.5065,-3.5089,-3.5032,-3.5214,-3.5157,-3.5171,-3.5194,-3.5212,-3.5226,-3.5218,-3.498,0,0,0,0,0,-3.4628,-3.4696,-3.4739,-3.4836,-3.486,-3.4882,-3.4921,-3.4921,-3.4968,-3.4987,-3.5017,-3.5063,-3.5129,-3.5172,-3.5234,-3.5354,-3.5365,-3.5408,-3.5422,-3.5434,-3.5445,-3.5512,-3.5532,-3.5321,-3.5321,-3.532,0,0,-3.4678,-3.4716,-3.4759,-3.4847,-3.4883,-3.4953,-3.4898,-3.4975,-3.5028,-3.4998,-3.5096,-3.512,-3.5172,-3.5283,-3.5334,-3.5306,-3.5507,-3.5445,-3.5454,-3.546,-3.5524,-3.5544,-3.5561,-3.5327,-3.5326,-3.5325,0,0,-3.4807,-3.4842,-3.4928,-3.4966,-3.5021,-3.5035,-3.5056,-3.5106,-3.5122,-3.522,-3.52,-3.5262,-3.5375,-3.5413,-3.5447,-3.5593,-3.5574,-3.5613,-3.5687,-3.5752,-3.5769,-3.5783,-3.5836,-3.5855,-3.5625,-3.5625,-3.5625,0,-3.4863,-3.4969,-3.4973,-3.5053,-3.5093,-3.5071,-3.5158,-3.5194,-3.5266,-3.5294,-3.5263,-3.5405,-3.5438,-3.5559,-3.5595,-3.5623,-3.5647,-3.5607,-3.5766,-3.5781,-3.5795,-3.5845,-3.5865,-3.563,-3.5629,-3.5629,-3.5628,0,-3.5036,-3.511,-3.5172,-3.5245,-3.5292,-3.5374,-3.5391,-3.5438,-3.5434,-3.5452,-3.5553,-3.5593,-3.5663,-3.5692,-3.5688,-3.5813,-3.5795,-3.5765,-3.5708,-3.5819,-3.5867,-3.5886,-3.5636,-3.5635,-3.5633,-3.5632,0,0,-3.5197,-3.5272,-3.5295,-3.5329,-3.5389,-3.5446,-3.5529,-3.5599,-3.564,-3.5691,-3.576,-3.5857,-3.5831,-3.5869,-3.587,-3.5927,-3.6042,-3.589,-3.5892,-3.5918,-3.6183,-3.6205,-3.6227,-3.6029,-3.6033,-3.6036,-3.6179,0,-3.5331,-3.5476,-3.5483,-3.5615,-3.5685,-3.5666,-3.5738,-3.5783,-3.5802,-3.5863,-3.5884,-3.5953,-3.5913,-3.5936,-3.5992,-3.6016,-3.6095,-3.6006,-3.6094,-3.6097,-3.6082,-3.6252,-3.6275,-3.6408,-3.6197,-3.62,-3.6202,0,-3.5506,-3.5565,-3.5704,-3.5757,-3.5786,-3.5851,-3.5917,-3.5976,-3.6027,-3.6037,-3.6082,-3.6075,-3.6159,-3.61,-3.6216,-3.6156,-3.6192,-3.621,-3.6215,-3.6223,-3.6156,-3.6265,-3.645,-3.647,-3.6231,-3.6229,-3.6227,0,-3.5611,-3.5724,-3.5823,-3.5852,-3.5916,-3.5962,-3.599,-3.6037,-3.608,-3.6138,-3.6165,-3.6232,-3.6268,-3.6319,-3.633,-3.6286,-3.6448,-3.6389,-3.6458,-3.6458,-3.6493,-3.649,-3.6686,-3.6516,-3.6516,-3.6515,-3.6515,0,-3.576,-3.5846,-3.5871,-3.5932,-3.6028,-3.6036,-3.6131,-3.6156,-3.6199,-3.6264,-3.6252,-3.6313,-3.6324,-3.6388,-3.6397,-3.6493,-3.6509,-3.652,-3.6521,-3.6521,-3.652,-3.6545,-3.6536,-3.6521,-3.652,-3.6518,-3.6518,0,-3.5893,-3.5913,-3.6019,-3.6072,-3.6087,-3.6156,-3.62,-3.6259,-3.6277,-3.636,-3.638,-3.6409,-3.6483,-3.65,-3.6588,-3.6594,-3.6708,-3.67,-3.6692,-3.6691,-3.676,-3.6753,-3.6979,-3.7009,-3.6819,-3.682,-3.6822,0,-3.5986,-3.6053,-3.6113,-3.6156,-3.6187,-3.6257,-3.6301,-3.6312,-3.6358,-3.6422,-3.6473,-3.6547,-3.6606,-3.6727,-3.6755,-3.6823,-3.6817,-3.6891,-3.6827,-3.6825,-3.6819,-3.6815,-3.6822,-3.6903,-3.6906,-3.6907,-3.6909,0,-3.6151,-3.6158,-3.6223,-3.6292,-3.6345,-3.6399,-3.6451,-3.6487,-3.6505,-3.6557,-3.6634,-3.6681,-3.6772,-3.6846,-3.6914,-3.6943,-3.6929,-3.6929,-3.6949,-3.6949,-3.6942,-3.6948,-3.6726,-3.6923,-3.6922,-3.6921,-3.692,-3.6919,-3.6268,-3.6326,-3.6378,-3.6451,-3.6492,-3.6541,-3.6599,-3.6625,-3.669,-3.6766,-3.6769,-3.6853,-3.6903,-3.6994,-3.7028,-3.7094,-3.707,-3.7099,-3.7106,-3.7113,-3.712,-3.6932,-3.7106,-3.7105,-3.7105,-3.7105,-3.7104,0,-3.6432,-3.6465,-3.6532,-3.6606,-3.6663,-3.6647,-3.6704,-3.6753,-3.6828,-3.6877,-3.6936,-3.7026,-3.7097,-3.7133,-3.7204,-3.725,-3.7245,-3.7268,-3.7265,-3.7272,-3.7136,-3.7112,-3.7271,-3.7271,-3.7271,-3.7271,-3.7271,-3.727,-3.6524,-3.6623,-3.6637,-3.6757,-3.6789,-3.6873,-3.6907,-3.6952,-3.6992,-3.7092,-3.7153,-3.7176,-3.7219,-3.7294,-3.7359,-3.7368,-3.7395,-3.7421,-3.7426,-3.7298,-3.7281,-3.7265,-3.7243,-3.7426,-3.7427,-3.7557,-3.7558,-3.7559]}]]